Location: Rounton
(54.4000°N, 1.3500°W)
Time: 09:07:42
(UTC+01:00)

A-11 Canister half - Pass Details

Date: 01 July 2022
Orbit: 1525 x 1683 km, 47.3° (Epoch: 10 August)

Event Time Altitude Azimuth Distance (km) Brightness Sun altitude
Rises 22:24:19 0° 276° (W) 4,726 12.3 -4.8°
Reaches altitude 10° 22:27:33 10° 271° (W) 3,726 11.6 -5.1°
Maximum altitude 22:36:14 45° 203° (SSW) 1,984 9.4 -5.8°
Drops below altitude 10° 22:44:51 10° 134° (SE) 3,691 10.4 -6.6°
Enters shadow 22:46:03 - 132° (SE) 4,054 10.6 -6.6°
